Location: Miles
(41.4492°N, 81.6087°W)
Time: 16:34:33
(UTC+00:00)

S-56A Canister/Altair - Pass Details

Date: 23 September 2024
Orbit: 636 x 2487 km, 38.9° (Epoch: 12 October)

Event Time Altitude Azimuth Distance (km) Brightness Sun altitude
Rises 03:34:30 0° 275° (W) 3,700 11.5 -42.5°
Reaches altitude 10° 03:37:15 10° 263° (W) 2,976 10.7 -42.8°
Enters shadow 03:38:01 13° 258° (WSW) 2,814 10.5 -42.9°
